Temperature
24 23 23 24 24 24 24 24 24 25 25 24 24 23 23 24 23 23 22 22 22 21 20 20 19 19 19 19 18 18 18 18 17 17 17 17 17 17 17 17 17 16 16 16
24 23 24 25 25 25 24 24 24 25 25 24 24 24 24 24 23 23 22 22 22 21 21 20 19 19 18 18 18 18 18 17 17 17 17 17 17 17 16 16 16 16 16 16
24 24 25 25 24 24 24 24 24 24 24 25 24 23 24 24 24 23 23 22 22 21 21 20 19 19 18 18 18 18 18 17 17 17 17 17 17 16 16 16 16 16 16 16
24 25 25 24 24 24 24 25 24 24 23 23 24 22 23 24 23 23 23 22 22 21 21 20 19 19 18 18 18 18 18 18 17 17 17 17 16 16 16 16 16 16 16 16
24 24 24 24 24 24 24 24 24 24 23 23 24 23 23 24 23 23 23 23 22 21 20 20 19 19 19 18 18 18 18 17 17 17 17 17 17 16 16 16 16 16 16 16
24 25 25 24 25 25 25 24 24 24 23 22 24 24 23 24 24 24 23 23 22 21 20 20 19 19 18 18 18 18 18 17 17 17 17 17 16 16 16 16 16 16 16 16
24 24 25 24 24 24 24 23 22 22 22 23 25 24 23 25 25 25 24 23 22 21 20 20 19 19 18 18 18 18 17 17 17 17 17 17 16 16 16 16 16 16 16 16
23 23 24 24 24 24 24 23 22 21 22 23 24 24 24 25 25 24 23 22 22 21 20 20 19 19 18 18 17 17 17 17 17 17 17 17 17 16 16 16 16 16 16 16
23 23 25 25 25 24 23 23 24 22 22 22 24 24 24 24 24 24 23 22 21 21 20 19 19 18 18 18 17 17 17 17 17 17 17 17 17 17 16 16 16 16 16 15
24 23 24 24 24 24 24 23 23 22 21 21 23 24 23 23 23 23 23 22 21 20 20 19 18 18 18 17 17 17 17 17 17 17 17 17 16 16 16 16 16 16 16 16
23 23 23 23 23 23 23 23 23 22 22 21 21 22 24 23 23 23 23 22 21 20 19 19 18 18 17 17 17 17 17 17 17 17 17 16 16 16 16 16 16 16 15 15
23 23 22 23 24 25 24 23 23 21 22 22 21 22 25 24 24 23 23 22 21 20 19 18 18 18 17 17 17 17 17 17 16 16 16 16 16 16 16 16 16 15 15 15
23 22 21 22 22 23 23 23 23 23 22 22 21 22 24 24 24 23 22 21 20 19 19 18 18 17 17 17 17 16 16 16 16 16 16 16 16 16 16 15 15 15 15 15
21 22 21 21 21 22 22 23 23 22 21 21 22 22 23 23 22 22 22 21 20 19 18 18 17 17 17 16 16 16 16 16 16 16 16 16 16 15 15 15 15 15 15 15
22 21 22 22 23 23 22 22 22 22 22 21 22 22 22 22 22 22 21 20 20 19 18 17 17 17 16 16 16 16 16 16 16 16 15 15 15 15 15 15 15 15 15 15
22 21 21 21 22 22 22 22 22 22 22 22 22 22 22 22 22 22 21 20 19 19 18 17 17 16 16 16 16 16 16 16 15 15 15 15 15 15 15 15 15 15 15 15
21 21 20 20 21 22 21 22 22 22 22 22 21 21 22 22 21 21 20 20 19 18 18 17 16 16 16 16 15 15 15 15 15 15 15 15 15 15 15 15 15 15 14 14
21 20 20 20 20 19 21 23 23 22 22 22 22 21 21 22 21 20 20 19 19 18 17 17 16 16 16 16 15 15 15 15 15 15 15 15 15 15 14 14 14 14 14 14
21 20 19 19 19 20 21 22 22 21 21 21 21 21 21 21 20 19 19 19 18 17 17 16 16 16 16 15 15 15 15 15 15 15 15 14 14 14 14 14 14 14 14 14
20 20 19 19 18 18 20 21 21 21 19 21 21 20 20 20 18 18 18 18 17 17 16 16 16 15 15 15 15 15 15 14 14 14 14 14 14 14 14 14 14 14 14 13
19 19 18 18 18 19 20 20 21 19 19 20 19 19 19 19 18 18 17 17 16 16 16 16 15 15 15 15 15 15 14 14 14 14 14 14 14 14 14 13 13 13 13 13
19 18 18 18 17 18 19 19 19 19 19 19 18 18 18 18 17 17 17 16 16 16 15 15 15 15 15 14 14 14 14 14 14 14 14 14 13 13 13 13 13 13 13 13
19 19 18 18 18 19 19 19 18 18 18 18 17 17 17 17 17 17 16 16 15 15 15 15 15 14 14 14 14 14 14 14 14 14 13 13 13 13 13 13 13 13 13 13
19 20 19 18 19 19 18 18 18 17 17 17 17 17 17 16 16 16 16 15 15 15 15 14 14 14 14 14 14 14 14 14 13 13 13 13 13 13 13 13 13 13 13 12
18 18 18 18 18 18 18 17 17 17 17 16 16 16 16 16 16 15 15 15 15 14 14 14 14 14 14 14 14 13 13 13 13 13 13 13 13 13 13 13 13 12 12 12
18 18 17 17 18 17 17 17 16 16 16 16 15 15 15 15 15 15 15 14 14 14 14 14 14 13 13 13 13 13 13 13 13 13 12 12 12 12 12 12 12 12 12 12
Wind_Speed
5 4 3 2 2 4 5 4 3 1 3 2 4 5 6 7 7 6 6 6 5 6 6 5 4 4 3 2 2 4 5 4 4 3 2 3 2 1 2 2 2 3 2 4
5 4 3 2 3 5 6 5 4 2 1 3 5 6 6 7 8 7 6 5 5 4 6 6 5 5 4 3 2 3 5 5 5 4 3 3 3 2 2 1 2 2 3 3
4 1 1 4 4 5 5 4 4 4 3 6 6 6 7 9 7 7 6 4 4 5 5 6 5 5 4 4 4 3 4 5 6 6 3 3 2 1 2 2 1 1 2 2
4 3 3 4 4 6 5 3 5 5 5 5 5 3 4 8 9 8 7 6 5 3 4 5 6 5 5 4 4 4 5 5 6 7 5 4 3 2 3 3 2 2 2 2
3 3 4 6 4 5 4 5 7 8 8 8 8 5 3 7 7 8 7 7 6 5 4 4 5 5 5 5 4 3 5 4 5 6 6 4 3 3 3 3 3 3 2 2
6 4 5 4 4 5 6 8 9 8 7 7 7 4 2 3 4 5 6 6 5 5 4 4 4 4 4 4 4 3 3 3 4 5 6 5 4 3 3 3 3 2 2 2
8 8 6 5 6 6 6 6 3 4 5 4 3 3 2 4 5 5 5 4 4 5 4 4 5 5 4 5 5 4 4 3 4 5 5 6 5 5 4 4 3 3 2 2
6 6 7 6 6 5 6 6 4 3 3 2 3 2 4 6 6 6 5 4 3 3 4 4 4 4 5 6 6 5 5 5 4 5 4 5 5 4 3 4 3 3 2 2
5 2 5 4 5 6 5 5 5 6 9 6 2 3 5 6 6 6 5 4 4 3 4 4 3 4 4 5 5 5 4 5 5 5 5 4 5 5 4 4 4 3 3 3
7 5 4 4 4 7 8 7 4 3 4 5 3 2 3 6 6 5 4 4 4 3 3 4 4 3 4 4 4 4 4 4 4 5 5 4 4 5 5 4 4 4 4 3
7 7 5 6 7 8 8 7 5 4 5 4 3 1 3 5 4 3 4 5 4 4 3 3 3 3 3 4 4 4 4 4 3 4 4 4 4 4 4 4 4 4 4 4
5 6 7 8 6 6 7 7 7 5 5 5 5 2 5 5 4 3 3 5 5 4 3 3 3 3 2 2 3 3 3 3 3 3 4 4 4 4 4 4 4 3 3 4
3 5 6 5 3 3 6 8 8 7 7 6 6 3 3 4 4 3 4 5 5 4 4 3 3 3 2 2 3 3 2 2 2 2 3 4 4 4 4 4 4 4 3 4
3 7 9 7 6 4 7 8 7 8 7 8 8 6 2 0 2 3 4 4 5 4 3 3 3 2 2 2 2 3 3 2 2 2 3 3 4 4 4 3 3 3 3 3
5 9 11 11 11 10 9 10 10 11 10 10 9 9 7 4 1 2 3 4 4 4 3 3 3 2 2 2 2 3 3 3 3 3 3 2 3 3 3 4 3 2 2 2
7 9 11 13 13 12 12 12 11 11 11 11 11 10 6 5 1 1 2 3 4 3 3 3 2 2 2 2 2 2 3 3 3 3 3 2 2 3 4 4 3 3 2 2
7 10 11 11 11 12 12 10 10 10 10 10 10 7 5 4 1 1 2 3 3 4 3 2 2 2 2 2 2 2 3 3 3 3 3 3 2 3 3 4 4 3 3 3
9 9 7 8 10 11 5 3 4 6 6 6 5 3 4 3 2 1 1 3 3 4 3 2 1 1 1 2 2 2 3 3 3 3 2 2 2 3 3 3 3 3 3 3
9 8 6 7 9 10 6 2 2 4 4 4 4 4 4 4 1 1 1 2 3 3 2 2 1 1 2 2 2 2 3 3 3 3 3 2 3 3 4 4 3 3 3 3
8 9 8 8 8 8 3 3 3 4 4 2 3 4 4 2 2 1 2 2 2 2 1 1 1 1 1 2 3 3 3 4 3 3 3 3 2 3 4 5 4 2 3 3
7 8 10 10 10 7 2 3 3 3 2 4 4 4 3 3 2 2 2 1 0 1 1 1 1 1 1 2 3 3 2 2 3 3 2 2 2 3 4 4 4 4 4 3
7 6 8 8 10 6 2 1 2 2 3 4 5 5 4 2 2 1 1 1 0 1 2 1 1 1 2 3 3 2 2 2 2 2 2 3 3 3 3 4 4 4 4 4
7 6 4 4 3 1 2 2 3 3 4 4 4 5 5 3 2 1 1 1 1 1 2 2 2 2 2 3 3 3 2 2 2 2 3 3 3 3 3 4 4 4 4 4
7 5 6 7 5 4 2 2 2 3 5 4 4 5 5 3 3 2 1 1 1 2 2 3 3 3 3 3 3 3 2 2 3 2 3 3 3 3 3 3 3 3 4 4
7 6 7 9 7 4 3 3 3 4 5 5 5 5 5 4 4 4 3 2 2 2 3 3 3 3 3 3 3 3 3 3 3 2 2 3 3 3 3 3 3 4 4 5
9 8 8 7 6 6 4 3 4 5 5 5 6 6 5 4 3 4 3 2 1 2 3 3 4 4 4 4 4 4 4 4 4 3 3 2 2 2 3 3 2 1 3 5
Wind_Direction
215 229 245 254 257 289 305 310 296 294 134 213 249 242 211 187 184 196 194 192 179 168 159 148 143 133 129 139 145 142 145 152 131 122 123 118 108 102 96 105 105 115 106 98
220 219 239 257 270 273 279 278 274 257 225 251 255 254 213 189 189 190 199 197 171 166 154 146 152 150 160 159 171 161 160 154 137 130 140 136 130 136 118 103 95 116 124 122
236 137 245 251 250 268 271 283 295 296 286 256 247 245 211 182 183 183 195 194 172 171 168 162 161 161 166 174 176 180 157 155 141 138 138 135 123 136 122 126 110 102 103 104
242 230 244 258 259 277 273 296 287 275 270 258 237 251 220 180 181 187 187 187 182 180 175 166 167 170 172 178 180 178 160 161 153 149 153 159 156 155 152 149 157 158 118 111
242 216 249 254 269 286 295 300 282 271 264 268 252 251 193 178 185 182 181 182 179 177 180 169 167 173 174 167 164 160 157 160 159 160 156 167 160 153 146 143 155 152 133 135
258 235 249 272 275 270 284 272 263 253 254 255 240 236 195 174 151 149 160 167 165 170 172 164 163 160 159 150 150 155 153 149 150 156 157 173 164 159 152 154 153 145 137 160
239 224 218 240 259 239 253 268 268 225 219 234 206 223 139 101 97 109 125 144 153 158 161 152 153 155 159 157 159 161 159 159 164 174 175 176 173 173 174 164 155 150 155 167
242 225 192 203 242 259 251 258 276 286 283 277 210 186 122 104 100 98 103 117 127 139 142 144 152 158 157 159 166 171 178 178 178 186 184 174 169 165 169 163 159 164 166 174
275 230 158 185 233 264 268 262 280 298 302 294 232 143 135 122 127 121 111 115 127 135 132 133 134 153 158 163 167 171 181 182 187 191 187 185 172 167 169 167 163 164 165 172
286 281 205 188 221 237 258 283 279 267 292 286 269 224 170 155 145 136 127 120 120 120 128 139 146 152 166 161 166 179 189 193 195 195 190 187 177 170 169 168 167 171 169 167
278 273 241 206 214 233 224 241 256 270 270 287 302 345 94 105 107 121 136 122 116 118 127 133 136 142 147 156 173 191 190 183 190 196 186 177 172 168 168 164 168 168 164 168
254 272 263 243 228 228 250 249 255 261 274 277 287 298 103 108 125 129 129 123 125 123 128 129 122 120 134 159 168 182 188 182 191 190 172 178 177 175 170 164 165 173 175 181
294 270 273 247 205 217 250 252 259 271 278 273 270 268 120 115 120 110 104 111 112 122 125 126 126 136 143 148 164 172 176 169 166 168 171 181 174 176 170 172 177 184 187 184
288 263 265 270 283 268 259 258 259 265 264 267 268 279 274 56 102 91 90 114 124 129 126 119 124 136 132 137 153 158 149 146 162 165 173 189 178 175 169 171 174 178 182 178
245 261 268 275 286 284 273 265 257 256 262 270 281 291 303 326 30 126 123 118 131 141 139 135 145 148 145 165 171 156 148 159 165 156 161 179 162 162 150 146 162 157 149 146
240 263 273 275 274 274 268 261 256 259 263 267 273 278 300 314 359 94 147 147 155 154 146 142 152 144 163 172 164 158 165 167 159 153 154 158 150 146 145 152 158 151 160 146
238 255 268 271 272 276 262 255 251 255 262 263 269 281 302 307 328 225 171 165 161 150 139 140 150 156 176 174 164 171 173 162 156 147 149 149 149 141 149 152 140 147 148 132
256 258 262 269 272 259 259 282 265 265 279 284 285 296 298 310 335 44 97 148 142 141 146 151 167 179 185 167 163 166 160 156 148 147 145 146 145 142 142 132 134 153 150 148
246 249 255 258 264 268 263 259 262 272 279 301 303 313 320 322 358 43 48 92 106 117 128 141 177 197 182 158 150 164 162 160 157 163 172 166 163 159 154 150 155 159 149 155
234 241 243 250 258 262 282 348 343 297 261 312 316 322 332 325 287 312 50 49 56 86 98 115 165 214 140 135 146 156 162 167 172 178 187 179 179 171 167 167 165 161 158 163
220 229 233 245 253 261 302 353 339 265 316 2 357 349 343 310 322 16 52 48 40 129 138 157 180 170 135 147 154 157 159 169 177 178 180 177 182 182 178 169 164 163 164 168
234 230 231 237 244 249 18 325 290 326 5 10 4 351 343 336 1 21 18 7 155 161 175 177 157 143 142 149 149 153 161 147 141 158 175 180 184 187 172 159 166 170 167 171
236 242 250 244 248 317 353 353 351 343 332 354 359 346 336 333 320 309 282 285 233 192 187 170 164 166 172 161 155 174 175 153 159 177 182 181 180 174 164 166 177 174 173 177
265 264 262 265 256 270 271 289 315 319 316 333 339 335 334 327 321 293 269 263 249 221 185 176 178 192 185 176 177 187 169 167 180 185 187 187 186 175 166 162 167 171 180 184
277 274 263 264 275 281 263 279 295 304 312 322 327 324 320 317 312 307 289 261 252 215 188 185 195 207 207 200 192 181 174 175 189 192 195 198 188 175 168 171 183 186 192 190
262 264 262 266 280 287 287 297 299 294 297 304 308 308 309 312 307 298 294 278 253 228 201 200 201 209 219 214 200 188 188 192 195 200 200 199 187 170 168 165 156 144 183 190
Height
1507 1510 1511 1508 1506 1506 1505 1507 1509 1505 1502 1506 1509 1509 1508 1509 1512 1514 1515 1517 1518 1520 1522 1523 1525 1526 1527 1528 1529 1530 1531 1533 1534 1536 1538 1539 1541 1542 1543 1544 1545 1546 1547 1548
1507 1509 1506 1504 1504 1505 1505 1509 1508 1505 1502 1505 1507 1506 1504 1506 1508 1511 1513 1515 1517 1519 1520 1522 1523 1524 1526 1527 1528 1529 1530 1532 1533 1535 1537 1539 1540 1541 1543 1544 1545 1546 1547 1548
1506 1506 1504 1504 1505 1507 1507 1508 1508 1508 1505 1503 1507 1509 1503 1502 1505 1508 1511 1513 1515 1517 1518 1520 1521 1523 1524 1525 1527 1528 1529 1531 1532 1534 1536 1538 1539 1541 1542 1543 1544 1545 1546 1547
1504 1503 1504 1505 1506 1506 1510 1504 1505 1507 1512 1511 1506 1518 1505 1499 1503 1505 1508 1510 1513 1515 1517 1518 1519 1521 1522 1524 1525 1527 1528 1530 1531 1533 1535 1537 1538 1539 1541 1542 1543 1545 1546 1546
1504 1503 1505 1507 1505 1505 1506 1503 1504 1504 1508 1511 1504 1511 1506 1497 1501 1502 1504 1507 1510 1513 1515 1516 1518 1519 1521 1522 1524 1526 1527 1529 1530 1532 1534 1536 1537 1539 1540 1541 1542 1544 1545 1546
1502 1502 1503 1504 1503 1504 1503 1504 1502 1502 1507 1517 1503 1508 1509 1498 1497 1498 1501 1505 1508 1510 1513 1514 1516 1518 1519 1521 1522 1524 1526 1528 1529 1531 1532 1534 1536 1538 1539 1540 1541 1542 1544 1545
1504 1501 1501 1503 1505 1503 1504 1511 1519 1519 1520 1514 1495 1502 1504 1493 1492 1496 1500 1503 1506 1508 1510 1512 1514 1516 1517 1519 1521 1523 1525 1526 1528 1530 1531 1533 1535 1537 1538 1539 1540 1541 1543 1544
1509 1507 1499 1500 1504 1505 1504 1508 1521 1528 1520 1508 1496 1502 1498 1490 1493 1496 1500 1503 1505 1507 1509 1511 1513 1514 1516 1518 1519 1521 1523 1525 1526 1528 1530 1532 1534 1535 1537 1538 1539 1540 1542 1543
1505 1504 1496 1498 1500 1502 1505 1505 1503 1512 1512 1513 1502 1496 1493 1491 1494 1497 1500 1502 1505 1507 1508 1510 1512 1513 1515 1516 1518 1520 1521 1523 1524 1526 1528 1530 1532 1533 1535 1536 1538 1539 1541 1542
1500 1506 1499 1497 1500 1501 1503 1503 1506 1514 1523 1523 1508 1501 1501 1495 1495 1496 1499 1502 1504 1506 1508 1509 1510 1512 1513 1514 1516 1518 1520 1521 1523 1525 1527 1528 1530 1532 1533 1535 1536 1537 1539 1541
1500 1506 1503 1499 1502 1503 1503 1505 1505 1508 1510 1521 1521 1511 1489 1492 1493 1496 1498 1501 1503 1506 1507 1508 1509 1511 1512 1513 1515 1516 1518 1520 1521 1523 1525 1526 1528 1530 1532 1533 1534 1536 1538 1539
1500 1503 1505 1499 1492 1493 1497 1500 1503 1515 1512 1508 1515 1510 1488 1490 1492 1495 1497 1500 1502 1505 1506 1508 1509 1510 1511 1512 1513 1515 1516 1518 1519 1521 1523 1525 1526 1528 1530 1531 1533 1534 1536 1537
1502 1505 1511 1508 1504 1499 1498 1497 1498 1501 1506 1510 1516 1510 1489 1490 1492 1494 1497 1499 1502 1504 1506 1507 1508 1509 1510 1511 1512 1513 1515 1516 1518 1519 1521 1522 1524 1526 1528 1529 1531 1533 1534 1535
1504 1504 1509 1515 1507 1501 1501 1499 1498 1502 1509 1508 1505 1501 1493 1492 1492 1494 1497 1499 1501 1503 1505 1506 1507 1508 1509 1510 1511 1512 1513 1515 1516 1517 1518 1520 1522 1523 1525 1527 1529 1531 1532 1533
1502 1505 1501 1499 1496 1495 1497 1498 1497 1499 1499 1504 1501 1498 1493 1491 1492 1494 1496 1498 1500 1502 1504 1505 1506 1507 1508 1509 1510 1510 1512 1513 1514 1516 1517 1518 1520 1522 1523 1525 1527 1528 1530 1531
1500 1503 1501 1500 1495 1493 1494 1493 1493 1494 1494 1495 1495 1495 1491 1491 1491 1493 1494 1496 1498 1500 1502 1503 1505 1505 1506 1507 1508 1509 1510 1511 1513 1514 1515 1517 1518 1520 1521 1522 1524 1526 1528 1529
1498 1501 1505 1504 1496 1494 1496 1489 1489 1490 1489 1492 1495 1493 1490 1490 1490 1492 1493 1495 1496 1498 1500 1502 1503 1504 1505 1506 1506 1507 1508 1510 1511 1512 1514 1515 1516 1518 1519 1521 1522 1524 1526 1527
1497 1500 1503 1503 1502 1508 1491 1482 1483 1486 1487 1487 1488 1488 1489 1489 1490 1490 1492 1493 1495 1497 1499 1500 1501 1502 1503 1504 1505 1505 1507 1508 1509 1510 1512 1513 1515 1516 1517 1519 1520 1522 1523 1525
1493 1498 1503 1505 1506 1498 1487 1483 1484 1487 1489 1487 1487 1487 1488 1488 1489 1491 1491 1493 1494 1496 1497 1498 1499 1500 1501 1501 1502 1503 1504 1506 1507 1509 1510 1511 1513 1514 1515 1517 1518 1519 1521 1522
1492 1494 1501 1502 1507 1505 1492 1484 1483 1487 1491 1487 1487 1487 1488 1488 1491 1492 1491 1492 1493 1494 1495 1496 1497 1498 1499 1499 1500 1501 1503 1504 1505 1506 1508 1509 1510 1512 1513 1514 1516 1517 1519 1520
1494 1496 1499 1501 1503 1495 1488 1485 1485 1496 1495 1488 1488 1488 1489 1489 1491 1491 1491 1491 1492 1493 1493 1494 1495 1496 1496 1497 1498 1499 1501 1502 1503 1505 1506 1507 1508 1509 1510 1512 1513 1515 1516 1518
1491 1494 1496 1496 1501 1498 1487 1486 1490 1492 1489 1489 1489 1489 1489 1489 1489 1489 1489 1489 1490 1490 1491 1492 1493 1493 1494 1495 1496 1497 1499 1500 1501 1502 1503 1504 1505 1507 1508 1509 1511 1512 1514 1515
1485 1486 1488 1490 1493 1488 1487 1488 1489 1489 1489 1488 1488 1488 1488 1488 1487 1487 1488 1488 1488 1488 1489 1490 1491 1492 1493 1493 1494 1495 1497 1498 1499 1500 1501 1502 1503 1504 1505 1507 1508 1510 1511 1513
1481 1481 1484 1485 1484 1485 1486 1487 1488 1488 1488 1488 1488 1487 1487 1486 1486 1486 1485 1485 1486 1486 1486 1487 1488 1489 1490 1491 1492 1493 1494 1496 1497 1497 1498 1499 1500 1501 1503 1504 1505 1506 1508 1509
1483 1482 1483 1484 1483 1484 1484 1485 1486 1486 1486 1486 1486 1486 1486 1485 1484 1484 1483 1483 1483 1484 1484 1485 1486 1486 1488 1489 1489 1491 1492 1493 1494 1495 1496 1497 1498 1499 1500 1501 1502 1503 1504 1506
1482 1482 1483 1483 1482 1483 1483 1484 1484 1484 1484 1484 1484 1484 1483 1483 1482 1482 1481 1481 1481 1481 1482 1482 1483 1483 1485 1486 1486 1487 1489 1490 1491 1492 1493 1494 1495 1496 1497 1497 1499 1500 1502 1503